Location: Bremen
(53.0793°N, 8.8017°E)
Time: 04:19:04
(UTC+01:00)

Vanguard 1 Rocket - Pass Details

Date: 03 December 2021
Orbit: 651 x 4225 km, 34.3° (Epoch: 26 January)

Event Time Altitude Azimuth Distance (km) Brightness Sun altitude
Rises 01:10:28 0° 182° (S) 4,483 - -57.2°
Reaches altitude 10° 01:15:06 10° 159° (SSE) 4,107 - -56.9°
Maximum altitude 01:20:27 14° 130° (SE) 4,413 - -56.6°
Exits shadow 01:23:21 13° 117° (ESE) 4,832 11.0 -56.3°
Drops below altitude 10° 01:27:21 10° 104° (ESE) 5,573 11.4 -56.0°
Sets 01:36:03 0° 85° (E) 7,420 12.3 -55.3°
